Regional Weather Roundup
Issued by NWS

Home | Current Version | Previous Version | Graphics & Text | Print | Product List | Glossary On
Versions: 1 2 3 4 5 6 7 8 9 10 11 12 13 14 15 16 17 18 19 20 21 22 23 24 25 26 27
000
ASUS45 KTFX 251210
RWRMT
MONTANA REGIONAL WEATHER ROUNDUP
NATIONAL WEATHER SERVICE GREAT FALLS MT
600 AM MDT MON JUL 25 2016

NOTE: "FAIR" INDICATES FEW OR NO CLOUDS BELOW 12000 FEET WITH NO
SIGNIFICANT WEATHER AND/OR OBSTRUCTIONS TO VISIBILITY.

MTZ001>007-043-251300-
WEST OF THE DIVIDE

CITY           SKY/WX    TMP DP  RH WIND       PRES   REMARKS
KALISPELL      CLEAR     48  47  96 VRB7      30.07R
MISSOULA       CLEAR     54  46  74 CALM      30.11R
BUTTE          CLEAR     47  36  65 SE3       30.20S
MULLAN PASS    CLEAR     60  42  51 CALM      30.21S
ANACONDA         N/A     52  39  62 SW5       30.17R
DEER LODGE       N/A     45  39  81 CALM      30.18S
EUREKA           N/A     52  46  82 CALM      30.08R
HAMILTON         N/A     52  45  76 CALM      30.11R
LIBBY            N/A     50  45  81 CALM      30.09R
PLAINS           N/A     52  45  77 CALM      30.08R
RONAN            N/A     49  46  89 CALM      30.11S
THOMPSON FALLS   N/A     51  48  89 CALM      30.12R
$$

MTZ008-052>055-251300-
SOUTHWEST MONTANA

CITY           SKY/WX    TMP DP  RH WIND       PRES   REMARKS
BOZEMAN        CLEAR     48  42  80 SE6       30.14R
DILLON         CLEAR     53  34  48 S8        30.16R
W YELLOWSTONE  CLEAR     32  27  80 CALM      30.30S
ENNIS          CLEAR     48  30  49 CALM      30.23R
THREE FORKS      N/A     48  48 100 CALM      30.10R
TWIN BRIDGES     N/A     48  37  65 CALM      30.13R
$$

MTZ009-010-012-014-046-048-049-054-251300-
EAST SLOPES AND CENTRAL MONTANA

CITY           SKY/WX    TMP DP  RH WIND       PRES   REMARKS
CUT BANK       CLEAR     55  45  68 W3        30.08R
GREAT FALLS    CLEAR     50  42  74 S3        30.08R
MALMSTROM AFB  CLEAR     54  46  74 S8        30.07S
HELENA         CLEAR     59  41  51 CALM      30.10R
CHOTEAU          N/A     59  43  55 SW5       30.10S
$$

MTZ011-013-016-021-045-047-050-051-251300-
NORTH CENTRAL MONTANA

CITY           SKY/WX    TMP DP  RH WIND       PRES   REMARKS
HAVRE          CLEAR     52  47  83 CALM      29.99R
LEWISTOWN      CLEAR     54  43  66 SE6       30.10R
N BAR RANCH      N/A     59  41  51 W8        30.11S
CHINOOK          N/A     52  52 100 CALM      29.99S
$$

MTZ017>020-022>027-061-062-251300-
NORTHEAST MONTANA

CITY           SKY/WX    TMP DP  RH WIND       PRES   REMARKS
GLASGOW        CLEAR     59  52  77 E8        29.97S
JORDAN           N/A     51  45  79 W6        29.99R
SIDNEY         CLEAR     57  53  86 NW6       29.96S
WOLF POINT     CLEAR     54  53  97 CALM      29.97S
PLENTYWOOD       N/A     57  54  88 NW3       29.98S
POPLAR           N/A     59  55  88 NE5       29.97S
SCOBEY           N/A     51  42  71 CALM      29.99S
$$

MTZ028>42-056>058-251300-
SOUTHCENTRAL AND SOUTHEAST MONTANA

CITY           SKY/WX    TMP DP  RH WIND       PRES   REMARKS
BAKER          CLEAR     56  50  80 SE5       30.02S
BILLINGS       PTCLDY    64  42  44 W7        30.05R
LIVINGSTON     CLEAR     50  36  58 W5        30.13R
MILES CITY     CLEAR     65  47  52 SE6       29.97R
FORSYTH          N/A     61  46  59 SW3       29.99R
LAUREL           N/A     59  40  49 SW3       30.04R
ROUNDUP          N/A     55  41  59 SW7       29.96R
$$

REGIONAL REPORTS...DAKOTAS

CITY           SKY/WX    TMP DP  RH WIND       PRES   REMARKS
WILLISTON      CLEAR     61  56  83 N5        29.96F
MINOT          CLEAR     62  58  86 CALM      29.98F
DICKINSON      CLEAR     56  51  84 S8        29.99S
CROSBY           N/A     55  55 100 SE3       30.00S
WATFORD CITY     N/A    N/A N/A N/A MISG        N/A
BISMARCK       CLEAR     60  58  92 NE6       30.01F
GRAND FORKS    PTCLDY    62  59  90 W3        30.01R
FARGO          CLEAR     62  57  83 SW6       30.03R
BUFFALO SD       N/A     63  50  62 SE3       29.97S
RAPID CITY     CLEAR     65  56  72 S9        30.08S
$$

REGIONAL REPORTS...WYOMING/IDAHO/WASHINGTON

CITY           SKY/WX    TMP DP  RH WIND       PRES   REMARKS
GILLETTE       CLEAR     62  52  69 S6        30.10F
SHERIDAN       CLEAR     56  44  64 S6        30.06R
BUFFALO WY     CLEAR     69  36  29 MISG      30.13S
CODY           CLEAR     64  32  29 SW7       30.14S
YELLOWSTONE LA   N/A     36  32  85 NW3       30.39R
IDAHO FALLS    CLEAR     42  38  85 N5        30.15R
SALMON         CLEAR     52  37  58 CALM      30.10R
BOISE          CLEAR     65  36  34 SE7       30.00R
SPOKANE        CLEAR     63  51  65 E5        30.03S
$$

REGIONAL REPORTS...ALBERTA

CITY           SKY/WX    TMP DP  RH WIND       PRES   REMARKS
EDMONTON       CLEAR     52  48  87 W7        30.05R
CALGARY        PTCLDY    57  50  77 NW8       30.14R
LETHBRIDGE     PTCLDY    57  50  77 W18       30.05R
MEDICINE HAT   PTCLDY    54  52  94 VRB3      29.98R
WATERTON GATE    N/A     55  46  71 SW8         N/A
MILK RIVER       N/A     54  48  82 NW10        N/A
$$

REGIONAL REPORTS...SASKATCHEWAN

CITY           SKY/WX    TMP DP  RH WIND       PRES   REMARKS
SWIFT CURRENT  CLEAR     55  52  88 SW10      29.98R
REGINA         PTCLDY    55  54  94 E7        29.99R
SASKATOON      MOCLDY    59  59 100 VRB2      29.98R
CYPRESS HILLS    N/A     61  41  48 W1          N/A
VAL MARIE        N/A     48  46  93 NE1         N/A
ROCKGLEN         N/A     57  54  88 S6          N/A
ASSINIBOIA       N/A     55  52  88 W5          N/A
$$




USA.gov is the U.S. government's official web portal to all federal, state and local government web resources and services.